KT4FD Weather Reports


time (UTC)temp
C
wind
direction
speed
KPH
gust
KPH
rain 1hr
cm
rain 24hr
cm
rain mn
cm
humidity
%
barometer
mb
20260905133003 23 314 0.0 0.0 0.00 0.00 0.00 91 1016.3
20260905132003 23 314 0.0 1.6 0.00 0.00 0.00 91 1016.3
20260905131003 22 314 0.0 0.0 0.00 0.00 0.00 91 1016.4
20260905130003 22 314 0.0 0.0 0.00 0.00 0.00 91 1016.3
20260905125003 21 314 0.0 0.0 0.00 0.00 0.00 91 1016.2
20260905124003 21 314 0.0 0.0 0.00 0.00 0.00 91 1016.1
20260905123003 21 314 0.0 0.0 0.00 0.00 0.00 91 1016.3
20260905122003 21 314 0.0 3.2 0.00 0.00 0.00 91 1016.3
20260905121003 21 314 0.0 0.0 0.00 0.00 0.00 91 1016.1
20260905120004 21 314 0.0 0.0 0.00 0.00 0.00 91 1016.1
20260905115002 21 314 0.0 0.0 0.00 0.00 0.00 91 1015.9
20260905114003 21 314 0.0 0.0 0.00 0.00 0.00 91 1015.8
20260905103003 21 314 0.0 0.0 0.00 0.00 0.00 91 1015.3
20260905102003 21 314 0.0 0.0 0.00 0.00 0.00 91 1015.2
20260905101003 21 314 0.0 0.0 0.00 0.00 0.00 91 1015.3
20260905100004 21 314 0.0 0.0 0.00 0.00 0.00 91 1015.1
20260905095003 21 314 0.0 0.0 0.00 0.00 0.00 91 1015.0
20260905094003 21 314 0.0 0.0 0.00 0.00 0.00 91 1015.0
20260905093003 21 314 0.0 0.0 0.00 0.00 0.00 91 1015.0
20260905092003 21 314 0.0 0.0 0.00 0.00 0.00 91 1015.1
20260905091003 21 314 0.0 0.0 0.00 0.00 0.00 91 1015.2
20260905090004 21 314 0.0 0.0 0.00 0.00 0.00 91 1015.1
20260905085003 21 314 0.0 0.0 0.00 0.00 0.00 91 1015.2
20260905084003 21 314 0.0 0.0 0.00 0.00 0.00 91 1015.2
20260905083003 21 314 0.0 0.0 0.00 0.00 0.00 91 1015.2
20260905061003 22 314 0.0 1.6 0.00 0.00 0.00 90 1015.5
20260905060003 22 314 0.0 1.6 0.00 0.00 0.00 90 1015.4
20260905055003 22 314 0.0 1.6 0.00 0.00 0.00 91 1015.5
20260905054003 22 314 0.0 4.8 0.00 0.00 0.00 91 1015.5
20260905053003 22 314 0.0 1.6 0.00 0.00 0.00 91 1015.5
20260905052004 22 314 0.0 0.0 0.00 0.00 0.00 91 1015.7
20260905031004 23 314 0.0 0.0 0.00 0.00 0.00 88 1016.6
20260905030004 23 314 0.0 0.0 0.00 0.00 0.00 88 1016.7
20260905025003 23 314 0.0 1.6 0.00 0.00 0.00 90 1016.9
20260905024004 23 314 0.0 0.0 0.00 0.00 0.00 90 1017.0
20260905023003 23 314 0.0 0.0 0.00 0.00 0.00 90 1016.9
20260905022003 23 314 0.0 0.0 0.00 0.00 0.00 89 1016.8
20260905021004 23 314 0.0 0.0 0.00 0.00 0.00 89 1016.8
20260905010003 25 314 0.0 0.0 0.00 0.00 0.00 87 1016.4
20260905005004 26 314 0.0 0.0 0.00 0.00 0.00 85 1016.2
20260905004004 26 314 0.0 0.0 0.00 0.00 0.00 84 1016.3
20260905003003 26 314 0.0 0.0 0.00 0.00 0.00 83 1016.1
20260904205004 34 314 3.2 4.8 0.00 0.00 0.00 56 1015.8
20260904204004 33 315 4.8 9.7 0.00 0.00 0.00 56 1015.7
20260904203004 33 317 3.2 4.8 0.00 0.00 0.00 60 1015.8
20260904202004 32 317 3.2 8.0 0.00 0.00 0.00 62 1015.8
20260904201003 32 317 3.2 4.8 0.00 0.00 0.00 63 1016.0
20260904200003 32 317 3.2 12.9 0.00 0.00 0.00 63 1016.2
20260904185003 31 319 4.8 9.7 0.00 0.00 0.00 67 1017.4
20260904184004 32 319 3.2 9.7 0.00 0.00 0.00 65 1017.5
20260904183003 31 319 6.4 12.9 0.00 0.00 0.00 64 1017.6
20260904182003 32 319 4.8 12.9 0.00 0.00 0.00 63 1017.7
20260904181003 32 317 4.8 8.0 0.00 0.00 0.00 64 1017.7
20260904180004 32 317 4.8 16.1 0.00 0.00 0.00 63 1017.8
20260904175003 31 292 4.8 12.9 0.00 0.00 0.00 60 1017.9
20260904174003 31 290 3.2 14.5 0.00 0.00 0.00 63 1018.0
20260904173003 31 290 3.2 12.9 0.00 0.00 0.00 69 1018.1
20260904172003 31 290 9.7 14.5 0.00 0.00 0.00 68 1018.3
20260904171003 31 318 8.0 12.9 0.00 0.00 0.00 70 1018.3
20260904170003 30 321 3.2 4.8 0.00 0.00 0.00 67 1018.4
20260904165004 30 321 3.2 4.8 0.00 0.00 0.00 65 1018.4
20260904164004 30 321 4.8 9.7 0.00 0.00 0.00 70 1018.5
20260904163003 30 321 3.2 9.7 0.00 0.00 0.00 70 1018.6
20260904162004 30 321 3.2 8.0 0.00 0.00 0.00 70 1018.6
20260904161003 30 321 4.8 9.7 0.00 0.00 0.00 71 1018.7
20260904160003 30 321 3.2 4.8 0.00 0.00 0.00 74 1018.9
20260904155003 29 321 1.6 4.8 0.00 0.00 0.00 73 1018.9
20260904154003 29 321 1.6 8.0 0.00 0.00 0.00 75 1019.1
20260904153004 28 320 0.0 0.0 0.00 0.00 0.00 75 1019.1
20260904152003 28 320 0.0 0.0 0.00 0.00 0.00 78 1019.1
20260904151004 28 320 0.0 0.0 0.00 0.00 0.00 78 1019.0